Regional Weather Roundup
Issued by NWS Mt. Holly, NJ

Current Version | Previous Version | Text Only | Print | Product List | Glossary Off
Versions: 1 2 3 4 5 6 7 8 9 10 11 12 13 14 15 16 17 18 19 20 21 22 23 24 25 26 27 28 29 30 31 32 33 34 35 36 37 38 39 40 41 42 43 44 45 46 47 48 49 50

000
ASUS41 KPHI 261712
RWRPHI

REGIONAL WEATHER ROUNDUP
NATIONAL WEATHER SERVICE MOUNT HOLLY NJ
100 PM EDT FRI MAY 26 2017

NOTE:  "FAIR" INDICATES FEW OR NO CLOUDS BELOW 12,000 FEET WITH NO
SIGNIFICANT WEATHER AND/OR OBSTRUCTIONS TO VISIBILITY.

 * = STATION DOES NOT REPORT PRECIPITATION (E.G. RAIN, SNOW, ETC.)
        OR FOG.

NJZ015>026-261800-
SOUTHERN NEW JERSEY

CITY           SKY/WX    TMP DP  RH WIND       PRES   REMARKS
POMONA         PTSUNNY   74  57  55 W16G25    29.66S
WILDWOOD*      MOSUNNY   71  61  70 W14G24    29.71R
MILLVILLE      PTSUNNY   74  61  63 W16G25    29.69R
WRIGHTSTOWN    PTSUNNY   73  56  56 W16G29    29.61F
MOUNT HOLLY    PTSUNNY   73  55  53 W15       29.64S
TRENTON        CLOUDY    73  57  57 W9G20     29.63S

$$
NJZ001>014-261800-
NORTHERN NEW JERSEY

CITY           SKY/WX    TMP DP  RH WIND       PRES   REMARKS
SUSSEX         CLOUDY    69  54  58 W12G18    29.62R
ANDOVER*         N/A     70  54  56 VRB3      29.62R
MORRISTOWN     PTSUNNY   70  55  60 W12G18    29.61R
NEWARK         PTSUNNY   74  55  51 W20       29.59R
TETERBORO      PTSUNNY   75  57  53 NW12      29.57S
CALDWELL       MOSUNNY   75  54  47 NW13G22   29.60R
SOMERVILLE     CLOUDY    72  57  59 VRB7      29.60S
ALLAIRE*       PTSUNNY   73  57  57 W20       29.63S
TOMS RIVER*    PTSUNNY   75  59  57 W16       29.64F

$$
PAZ043-044-047-054-055-060>062-066>071-261800-
EASTERN PENNSYLVANIA

CITY           SKY/WX    TMP DP  RH WIND       PRES   REMARKS
PHILADELPHIA   MOSUNNY   74  55  51 W13G25    29.66S
NORTH PHILA    CLOUDY    72  57  59 W21       29.66S
BLUE BELL*     PTSUNNY   70  55  60 W12G23    29.67S
DOYLESTOWN     CLOUDY    70  58  65 NW10G23   29.64R
QUAKERTOWN*    CLOUDY    68  57  68 W13G21    29.67S
PERKASIE*      PTSUNNY   68  57  68 W16G23    29.67S
POTTSTOWN      PTSUNNY   68  56  65 VRB6      29.68S
LANCASTER      CLOUDY    73  58  59 W23G30    29.68F
COATESVILLE    PTSUNNY   72  57  60 NW15G23   29.70S
READING        CLOUDY    72  58  61 W16G28    29.66F
ALLENTOWN      CLOUDY    70  57  63 W14G21    29.65R
MOUNT POCONO   CLOUDY    60  55  83 W10       29.65S
HAZLETON       RAIN      63  54  72 W7G18     29.71S
LEHIGHTON      CLOUDY    70  57  64 W10       29.66S
WILKES BARRE   CLOUDY    63  54  72 N13       29.66R

$$
DEZALL-MDZ008-012-015-019-020-261800-
DELAWARE AND EASTERN MARYLAND

CITY           SKY/WX    TMP DP  RH WIND       PRES   REMARKS
WILMINGTON     PTSUNNY   74  59  59 W13G20    29.68F
DOVER          MOSUNNY   73  66  78 SW18G26   29.68F
GEORGETOWN     PTSUNNY   76  55  48 W17G28    29.72S
EASTON         PTSUNNY   75  57  53 NW16G22   29.78R
ABERDEEN       PTSUNNY   74  59  59 W15G21    29.70F
PATUXENT       PTSUNNY   75  61  61 W16G24    29.77R
OCEAN CITY     PTSUNNY   72  57  59 W12G21    29.74R
WALLOPS ISLAND PTSUNNY   75  59  57 W15G24    29.76S
CAMBRIDGE      PTSUNNY   73  59  60 W14G24    29.75R
SALISBURY      PTSUNNY   75  58  55 W14G25    29.74R

$$
PAZ001-021-NYZ056-072-MDZ011-DCZ001-261800-
OTHER NEARBY LOCATIONS

CITY           SKY/WX    TMP DP  RH WIND       PRES   REMARKS
HARRISBURG     CLOUDY    70  56  61 W18G26    29.69R
STATE COLLEGE  PTSUNNY   64  54  68 NW18      29.75R
WILLIAMSPORT   CLOUDY    66  58  75 NW15      29.67R
BINGHAMTON     CLOUDY    59  52  77 W12       29.66R
NEW YORK CITY  PTSUNNY   71  56  58 W12G20    29.61S
BALTIMORE      PTSUNNY   69  57  65 W24G30    29.73S
WASHINGTON DC  PTSUNNY   75  59  57 W20G29    29.76F

$$



USA.gov is the U.S. government's official web portal to all federal, state and local government web resources and services.